Overview Statistics Trail Chart Weather Telemetry Raw packets
 

This is the latest recevied weather packets stored in our database for station/object KD4EG. If no packets are shown the sender has not sent any weather packets the latest 10 day(s).

<< 91 92 93 94 95 96 97 >>
Time Temp. Humidity Pressure Rain* Wind** Luminosity Snow
1787942010 30.56° C 55% 1019.8 hPa 0 mm - 402 W/m² -
1787941705 31.11° C 54% 1020 hPa 0 mm - 419 W/m² -
1787941404 30.56° C 53% 1020 hPa 0 mm - 612 W/m² -
1787941103 30° C 55% 1020.2 hPa 0 mm - 583 W/m² -
1787940799 30.56° C 55% 1020.1 hPa 0 mm - 615 W/m² -
1787940496 30° C 57% 1020.3 hPa 0 mm - 615 W/m² -
1787940190 30° C 57% 1020.4 hPa 0 mm - 526 W/m² -
1787939890 30° C 59% 1020.1 hPa 0 mm - 312 W/m² -
1787939584 30° C 58% 1020.3 hPa 0 mm - 238 W/m² -
1787939279 30° C 58% 1020.2 hPa 0 mm - 714 W/m² -
1787938974 30° C 60% 1020.5 hPa 0 mm - 254 W/m² -
1787938673 29.44° C 62% 1020.6 hPa 0 mm - 749 W/m² -
1787938370 29.44° C 64% 1020.5 hPa 0 mm - 184 W/m² -
1787938070 29.44° C 64% 1020.4 hPa 0 mm - 148 W/m² -
1787937765 30° C 63% 1020.5 hPa 0 mm - 339 W/m² -
1787937461 30.56° C 62% 1020.3 hPa 0 mm - 173 W/m² -
1787937157 30.56° C 62% 1020.4 hPa 0 mm - 194 W/m² -
1787936857 30° C 65% 1020.4 hPa 0 mm - 688 W/m² -
1787936552 30° C 64% 1020.4 hPa 0 mm - 702 W/m² -
1787936251 29.44° C 64% 1020.6 hPa 0 mm - 714 W/m² -
1787935947 29.44° C 67% 1020.4 hPa 0 mm - 626 W/m² -
1787935647 28.89° C 69% 1020.3 hPa 0 mm - 685 W/m² -
1787935351 28.33° C 69% 1020.5 hPa 0 mm - 665 W/m² -
1787935039 28.33° C 69% 1020.6 hPa 0 mm - 626 W/m² -
1787934734 28.89° C 70% 1020.7 hPa 0 mm - 629 W/m² -

* Rain latest hour (hover to see other rain measurements)
** Current wind speed in m/s (hover to see current wind gust speed)